When you browse on this site, cookies collect data to enhance your experience and personalize the content and advertising you see.
Visit our Privacy Policy to learn more. By continuing to use the site, you agree to this use of cookies and data.
  • In Hungary
  • List of Countries
  • For 7 days
  • Water Temperature
  • Satellite Maps
  • Weather Map
  • News
  • Weather Widgets
  • user-avatar
    Login

    Hourly Weather Benica

    Today, 21 November, Wednesday

    Time Temperature Precipitation Wind Pressure Humidity
    00:00 -2°C° 0 mm 1 mps 756 mmHg 85%
    01:00 -2°C° 0 mm 1 mps 756 mmHg 85%
    02:00 -2°C° 0 mm 1 mps 756 mmHg 84%
    03:00 -2°C° 0 mm 1 mps 756 mmHg 84%
    04:00 -2°C° 0 mm 1 mps 756 mmHg 83%
    05:00 -2°C° 0 mm 1 mps 756 mmHg 83%
    06:00 -2°C° 0 mm 1 mps 755 mmHg 82%
    07:00 -2°C° 0 mm 1 mps 755 mmHg 82%
    08:00 -2°C° 0 mm 1 mps 755 mmHg 81%
    09:00 -1°C° 0 mm 1 mps 756 mmHg 76%
    10:00 0°C° 0 mm 1 mps 756 mmHg 71%
    11:00 -2°C° 0 mm 2 mps 756 mmHg 65%
    12:00 -1°C° 0 mm 2 mps 756 mmHg 64%
    13:00 -1°C° 0 mm 2 mps 756 mmHg 62%
    14:00 -1°C° 0 mm 2 mps 755 mmHg 60%
    15:00 -1°C° 0 mm 2 mps 755 mmHg 66%
    16:00 -2°C° 0 mm 2 mps 755 mmHg 71%
    17:00 -3°C° 0 mm 2 mps 755 mmHg 76%
    18:00 -3°C° 0 mm 2 mps 755 mmHg 79%
    19:00 -3°C° 0 mm 2 mps 755 mmHg 81%
    20:00 -3°C° 0 mm 2 mps 755 mmHg 83%
    21:00 -1°C° 0 mm 1 mps 755 mmHg 84%
    22:00 -1°C° 0 mm 1 mps 755 mmHg 84%
    23:00 -1°C° 0 mm 1 mps 755 mmHg 84%

    Tomorrow, 22 November, Thursday

    Time Temperature Precipitation Wind Pressure Humidity
    00:00 -1°C° 0 mm 1 mps 755 mmHg 84%
    01:00 -1°C° 0 mm 1 mps 755 mmHg 84%
    02:00 -1°C° 0 mm 1 mps 755 mmHg 84%
    03:00 -2°C° 0 mm 1 mps 755 mmHg 84%
    04:00 -2°C° 0 mm 1 mps 755 mmHg 84%
    05:00 -2°C° 0 mm 1 mps 755 mmHg 84%
    06:00 -2°C° 0 mm 1 mps 755 mmHg 85%
    07:00 -2°C° 0 mm 1 mps 755 mmHg 86%
    08:00 -2°C° 0 mm 1 mps 755 mmHg 87%
    09:00 -2°C° 0 mm 1 mps 755 mmHg 83%
    10:00 -1°C° 0 mm 1 mps 754 mmHg 79%
    11:00 -1°C° 0 mm 1 mps 754 mmHg 75%
    12:00 -2°C° 0 mm 2 mps 754 mmHg 73%
    13:00 -2°C° 0 mm 2 mps 754 mmHg 72%
    14:00 -2°C° 0 mm 2 mps 754 mmHg 71%
    15:00 -2°C° 0 mm 2 mps 754 mmHg 75%
    16:00 -3°C° 0 mm 2 mps 754 mmHg 80%
    17:00 -4°C° 0 mm 2 mps 753 mmHg 84%
    18:00 -4°C° 0 mm 2 mps 753 mmHg 85%
    19:00 -4°C° 0 mm 2 mps 753 mmHg 86%
    20:00 -4°C° 0 mm 2 mps 753 mmHg 88%
    21:00 -4°C° 0 mm 2 mps 754 mmHg 89%
    22:00 -4°C° 0 mm 2 mps 754 mmHg 90%
    23:00 -4°C° 0 mm 2 mps 754 mmHg 91%

    Day after tomorrow, 23 November, Friday

    Time Temperature Precipitation Wind Pressure Humidity
    00:00 -4°C° 0 mm 2 mps 754 mmHg 91%
    01:00 -4°C° 0 mm 2 mps 754 mmHg 91%
    02:00 -2°C° 0 mm 1 mps 754 mmHg 92%
    03:00 -2°C° 0 mm 1 mps 754 mmHg 91%
    04:00 -2°C° 0 mm 1 mps 754 mmHg 91%
    05:00 -1°C° 0 mm 1 mps 754 mmHg 91%
    06:00 -1°C° 0 mm 1 mps 755 mmHg 90%
    07:00 -1°C° 0 mm 1 mps 755 mmHg 90%
    08:00 -1°C° 0 mm 1 mps 755 mmHg 90%
    09:00 -1°C° 0 mm 1 mps 755 mmHg 87%
    10:00 0°C° 0 mm 1 mps 755 mmHg 84%
    11:00 0°C° 0 mm 1 mps 755 mmHg 81%
    12:00 0°C° 0 mm 1 mps 755 mmHg 79%
    13:00 +1°C° 0 mm 1 mps 755 mmHg 78%
    14:00 +1°C° 0 mm 1 mps 755 mmHg 76%
    15:00 -2°C° 0 mm 2 mps 755 mmHg 79%
    16:00 -3°C° 0 mm 2 mps 755 mmHg 83%
    17:00 -3°C° 0 mm 2 mps 755 mmHg 86%
    18:00 -4°C° 0 mm 2 mps 754 mmHg 86%
    19:00 -4°C° 0 mm 2 mps 754 mmHg 87%
    20:00 -4°C° 0 mm 2 mps 754 mmHg 87%
    21:00 -4°C° 0 mm 2 mps 754 mmHg 87%
    22:00 -4°C° 0 mm 2 mps 753 mmHg 87%
    23:00 -6°C° 0 mm 3 mps 753 mmHg 87%

    24 November, Saturday

    Time Temperature Precipitation Wind Pressure Humidity
    00:00 -6°C° 0 mm 3 mps 753 mmHg 87%
    01:00 -6°C° 0 mm 3 mps 752 mmHg 87%
    02:00 -6°C° 0 mm 3 mps 752 mmHg 87%
    03:00 -6°C° 0 mm 3 mps 751 mmHg 86%
    04:00 -6°C° 0 mm 3 mps 751 mmHg 85%
    05:00 -6°C° 0 mm 3 mps 750 mmHg 84%
    06:00 -6°C° 0 mm 3 mps 749 mmHg 81%
    07:00 -6°C° 0 mm 3 mps 749 mmHg 79%
    08:00 -5°C° 0 mm 3 mps 748 mmHg 77%
    09:00 -5°C° 0 mm 3 mps 748 mmHg 76%
    10:00 -4°C° 0 mm 3 mps 748 mmHg 75%
    11:00 -3°C° 0 mm 4 mps 748 mmHg 74%
    12:00 -2°C° 0 mm 3 mps 747 mmHg 76%
    13:00 -2°C° 0 mm 3 mps 747 mmHg 78%
    14:00 -1°C° 0 mm 3 mps 746 mmHg 81%
    15:00 -1°C° 0 mm 3 mps 746 mmHg 84%
    16:00 -2°C° 0 mm 3 mps 746 mmHg 88%
    17:00 -2°C° 0 mm 3 mps 745 mmHg 92%
    18:00 -2°C° 0 mm 3 mps 745 mmHg 93%
    19:00 -1°C° 0 mm 3 mps 745 mmHg 94%
    20:00 -1°C° 0 mm 3 mps 745 mmHg 96%
    21:00 -1°C° 0 mm 2 mps 745 mmHg 96%
    22:00 -1°C° 0 mm 2 mps 745 mmHg 97%
    23:00 -1°C° 0 mm 2 mps 745 mmHg 97%

    25 November, Sunday

    Time Temperature Precipitation Wind Pressure Humidity
    00:00 -1°C° 0 mm 2 mps 745 mmHg 97%
    01:00 -1°C° 0 mm 2 mps 745 mmHg 97%
    02:00 +1°C° 0 mm 1 mps 745 mmHg 97%
    03:00 +1°C° 0 mm 1 mps 744 mmHg 97%
    04:00 +1°C° 0 mm 1 mps 744 mmHg 97%
    05:00 +1°C° 0 mm 1 mps 744 mmHg 97%
    06:00 +1°C° 0 mm 1 mps 744 mmHg 97%
    07:00 +1°C° 0 mm 1 mps 744 mmHg 97%
    08:00 +1°C° 0 mm 1 mps 744 mmHg 97%
    09:00 +1°C° 0 mm 1 mps 744 mmHg 95%
    10:00 +2°C° 0 mm 1 mps 744 mmHg 94%
    11:00 +2°C° 0 mm 1 mps 744 mmHg 92%
    12:00 +2°C° 0 mm 1 mps 744 mmHg 92%
    13:00 +2°C° 0 mm 1 mps 744 mmHg 92%
    14:00 +2°C° 0 mm 1 mps 744 mmHg 92%
    15:00 +2°C° 0.1 mm 1 mps 744 mmHg 94%
    16:00 +2°C° 0.1 mm 1 mps 744 mmHg 95%
    17:00 +1°C° 0.1 mm 1 mps 744 mmHg 96%
    18:00 +1°C° 0.1 mm 1 mps 744 mmHg 96%
    19:00 -1°C° 0.1 mm 2 mps 744 mmHg 96%
    20:00 -1°C° 0.1 mm 2 mps 744 mmHg 97%
    21:00 -1°C° 0 mm 2 mps 744 mmHg 95%
    22:00 -1°C° 0 mm 3 mps 744 mmHg 94%
    23:00 -2°C° 0 mm 3 mps 744 mmHg 92%

    26 November, Monday

    Time Temperature Precipitation Wind Pressure Humidity
    00:00 -2°C° 0 mm 3 mps 744 mmHg 90%
    01:00 -2°C° 0 mm 3 mps 744 mmHg 88%
    02:00 -4°C° 0 mm 3 mps 744 mmHg 86%
    03:00 -4°C° 0 mm 3 mps 744 mmHg 87%
    04:00 -5°C° 0 mm 3 mps 744 mmHg 87%
    05:00 -5°C° 0 mm 3 mps 744 mmHg 87%
    06:00 -5°C° 0 mm 3 mps 744 mmHg 87%
    07:00 -5°C° 0 mm 2 mps 744 mmHg 88%
    08:00 -5°C° 0 mm 2 mps 744 mmHg 88%
    09:00 -4°C° 0 mm 2 mps 745 mmHg 86%
    10:00 -4°C° 0 mm 2 mps 745 mmHg 84%
    11:00 -3°C° 0 mm 2 mps 745 mmHg 82%
    12:00 -3°C° 0 mm 2 mps 745 mmHg 81%
    13:00 -3°C° 0 mm 2 mps 745 mmHg 80%
    14:00 -2°C° 0 mm 2 mps 745 mmHg 79%
    15:00 -3°C° 0 mm 2 mps 745 mmHg 80%
    16:00 -1°C° 0 mm 1 mps 745 mmHg 81%
    17:00 -1°C° 0 mm 1 mps 745 mmHg 81%
    18:00 -2°C° 0 mm 1 mps 745 mmHg 82%
    19:00 -2°C° 0 mm 1 mps 745 mmHg 83%
    20:00 -2°C° 0 mm 1 mps 745 mmHg 83%
    21:00 -2°C° 0 mm 1 mps 745 mmHg 84%
    22:00 -3°C° 0 mm 1 mps 745 mmHg 85%
    23:00 -3°C° 0 mm 1 mps 745 mmHg 86%
    Show more